Purchase, NY

4:11 AM EDT on August 30, 2016 (GMT -0400)
Westchester County

Weather History for KHPN - October, 2012

Change the Weather History Date:

Monday, October 8, 2012

  Actual Average Record
Temperature  
Mean Temperature 48 °F -  
Max Temperature 53 °F 63 °F 87 °F (2007)
Min Temperature 43 °F 45 °F 32 °F (1988)
Degree Days  
Heating Degree Days 17    
Moisture  
Dew Point 41 °F    
Average Humidity 76    
Maximum Humidity 89    
Minimum Humidity 59    
Precipitation  
Precipitation 0.02 in - - ()
Sea Level Pressure  
Sea Level Pressure 30.22 in    
Wind  
Wind Speed 4 mph (NW)    
Max Wind Speed 8 mph    
Max Gust Speed -    
Visibility 10 miles    
Events Rain    
Averages and records for this station are not official NWS values.
T = Trace of Precipitation, MM = Missing Value Source: NWS Daily Summary

Daily Weather History Graph

Daily Weather History Graph

Search for Another Location

Airport or City:

Trip Planner

Search our weather history database for the weather conditions in past years. The results will help you decide how hot, cold, wet, or windy it might be!

Date:

Astronomy

Oct. 08, 2012 Rise Set
Actual Time 6:59 AM EDT 6:24 PM EDT
Civil Twilight 6:31 AM EDT 6:51 PM EDT
Nautical Twilight 5:59 AM EDT 7:23 PM EDT
Astronomical Twilight 5:27 AM EDT 7:55 PM EDT
Moon No Moon Rise 2:15 PM EDT (10/8)
Length of Visible Light 12h 20m
Length of Day
11h 25m
Waning Gibbous, 46% of the Moon is Illuminated
Oct 8
Waning Gibbous
Oct 15
New
Oct 21
First Quarter
Oct 29
Full
Nov 6
Last Quarter

Hourly Weather History & Observations

Time (EDT) Temp. Windchill Dew Point Humidity Pressure Visibility Wind Dir Wind Speed Gust Speed Precip Events Conditions
12:56 AM 45.0 °F 42.6 °F 41.0 °F 86% 30.11 in 10.0 mi West 4.6 mph - N/A   Clear
1:56 AM 45.0 °F 42.6 °F 41.0 °F 86% 30.12 in 10.0 mi West 4.6 mph - N/A   Clear
2:56 AM 45.0 °F 41.2 °F 41.0 °F 86% 30.12 in 10.0 mi West 6.9 mph - N/A   Clear
3:56 AM 44.1 °F 40.8 °F 39.9 °F 85% 30.12 in 10.0 mi WNW 5.8 mph - N/A   Clear
4:56 AM 44.1 °F 40.8 °F 39.9 °F 85% 30.14 in 10.0 mi NW 5.8 mph - N/A   Clear
5:56 AM 44.1 °F 40.1 °F 39.0 °F 82% 30.14 in 10.0 mi NW 6.9 mph - N/A   Clear
6:56 AM 43.0 °F 39.5 °F 39.9 °F 89% 30.19 in 10.0 mi NW 5.8 mph - N/A   Clear
7:56 AM 46.0 °F 41.9 °F 41.0 °F 83% 30.22 in 10.0 mi NW 8.1 mph - N/A   Clear
8:56 AM 48.0 °F - 41.0 °F 77% 30.24 in 10.0 mi NW 6.9 mph - N/A   Clear
9:56 AM 50.0 °F - 41.0 °F 71% 30.26 in 10.0 mi NW 4.6 mph - N/A   Mostly Cloudy
10:56 AM 52.0 °F - 41.0 °F 66% 30.25 in 10.0 mi NNE 5.8 mph - N/A   Scattered Clouds
11:56 AM 53.1 °F - 39.9 °F 61% 30.25 in 10.0 mi North 4.6 mph - N/A   Scattered Clouds
12:56 PM 53.1 °F - 39.0 °F 59% 30.25 in 10.0 mi Calm Calm - N/A   Scattered Clouds
1:56 PM 53.1 °F - 39.9 °F 61% 30.26 in 10.0 mi Calm Calm - N/A   Scattered Clouds
2:56 PM 53.1 °F - 41.0 °F 64% 30.25 in 10.0 mi Calm Calm - N/A   Mostly Cloudy
3:56 PM 53.6 °F - 41.0 °F 62% 30.25 in 10.0 mi Calm Calm - N/A   Mostly Cloudy
4:56 PM 53.1 °F - 41.0 °F 64% 30.25 in 10.0 mi Calm Calm - N/A   Overcast
5:56 PM 51.1 °F - 44.1 °F 77% 30.29 in 10.0 mi Calm Calm - 0.00 in Rain Light Rain
6:56 PM 48.9 °F - 45.0 °F 86% 30.27 in 10.0 mi Calm Calm - 0.02 in Rain Light Rain
7:56 PM 50.0 °F - 43.0 °F 77% 30.27 in 10.0 mi Calm Calm - 0.00 in   Scattered Clouds
8:56 PM 48.2 °F - 44.6 °F 87% 30.25 in 10.0 mi Calm Calm - N/A   Clear
9:56 PM 48.2 °F - 42.8 °F 82% 30.26 in 10.0 mi NNE 3.5 mph - N/A   Clear
10:56 PM 48.0 °F - 43.0 °F 83% 30.26 in 10.0 mi Calm Calm - N/A   Clear
11:56 PM 48.9 °F - 42.1 °F 77% 30.23 in 10.0 mi North 4.6 mph - N/A   Scattered Clouds